Flag for Brazil Weather past 2 weeks in Boa Vista, Roraima, Brazil

Now
90 °F

Partly sunny.


Feels Like: 95 °F
Forecast: 76 / 89 °F
Wind: 16 mph from Northeast

Location: Boa Vista Aeropor-To

Current Time: Jul 23, 2014 at 12:40:51 PM

Latest Report: Jul 23, 2014 at 12:00 PM


Visibility: N/A

Pressure: 29.95 "Hg

Humidity: 52%

Dew point: 70 °F

Location of Boa VistaLocation

Historic Weather in Boa Vista — Graph

°F

Boa Vista temperature yesterday

Maximum temperature yesterday: 90 °F (at 12:00 PM)
Minimum temperature yesterday: 77 °F (at 4:00 AM)
Average temperature yesterday: 82 °F

Past Weeks' High & Low Weather Summary

 TemperatureHumidityPressure
High93 °F (Jul 20, 1:00 PM)100% (Jul 11, 6:00 AM)30.07 "Hg (Jul 11, 6:00 AM)
Low37 °F (Jul 14, 2:00 AM)44% (Jul 15, 4:00 PM)29.83 "Hg (Jul 11, 4:00 PM)
Average81 °F74%29.96 "Hg
* Reported Jul 8 11:00 AM — Jul 23 11:00 AM, Boa Vista, Weather by CustomWeather, © 2014

Note: Actual official high and low records may vary slightly from our data, if they occured in-between our weather recording intervals... More about our weather records

Advertising

Boa Vista weather history for previous 24 hours

 ConditionsComfort  
Time TempWeatherWind HumidityBarometerVisibility
11:00 AM
Jul 23
88 °FPartly sunny.12 mph59%29.98 "HgN/A
10:00 AM86 °FScattered clouds.14 mph62%29.98 "HgN/A
9:00 AM84 °FPassing clouds.16 mph66%29.98 "HgN/A
8:00 AM82 °FSunny.8 mph74%29.98 "Hg10 mi
7:00 AM79 °FSunny.6 mph79%29.95 "Hg10 mi
6:00 AM77 °FClear.7 mph83%29.92 "Hg10 mi
5:00 AM77 °FClear.6 mph83%29.92 "Hg10 mi
2:00 AM79 °FClear.5 mph84%29.92 "Hg10 mi
1:00 AM79 °FClear.6 mph84%29.95 "Hg10 mi
12:00 AM79 °FClear.7 mph84%29.95 "Hg10 mi
11:00 PM
Jul 22
81 °FClear.6 mph79%29.95 "Hg10 mi
10:00 PM82 °FClear.6 mph74%29.95 "Hg10 mi
9:00 PM82 °FClear.6 mph74%29.92 "Hg10 mi
8:00 PM84 °FClear.5 mph70%29.92 "Hg10 mi
1:00 PM90 °FScattered clouds.15 mph52%29.92 "HgN/A
12:00 PM90 °FScattered clouds.15 mph52%29.98 "HgN/A
Weather by CustomWeather, © 2014

See weather overviewHow to use our weather pages